SCP
0 0 0 0 0 0 0 0 0 0 0 0 0 0 1 1 0 0 0 0 0 0 0 0 0 0 0 0 0 0 0 0 0 0 0 0 0 0 0 0 0 0 0 0
0 0 0 0 0 0 0 0 0 0 0 0 0 0 0 0 0 0 0 0 0 0 0 0 0 0 0 0 0 0 0 0 0 0 0 0 0 0 0 0 0 0 0 0
0 0 0 0 0 0 0 0 0 0 0 0 0 0 0 0 0 0 0 0 0 0 0 0 0 0 0 0 0 0 0 0 0 0 0 0 0 0 0 0 0 0 0 0
0 0 0 0 0 0 0 0 0 0 0 0 0 0 0 0 0 0 0 0 0 0 0 0 0 0 0 0 0 0 0 0 0 0 0 0 0 0 0 0 0 0 0 0
0 0 0 0 0 0 0 0 0 0 0 0 0 0 0 0 0 0 0 0 0 0 0 0 0 0 0 0 0 0 0 0 0 0 0 0 0 0 0 0 0 0 0 0
0 0 0 0 0 0 0 0 0 0 0 0 0 0 0 0 0 0 0 0 0 0 0 0 0 0 0 0 0 0 0 0 0 0 0 0 0 0 0 0 0 0 0 0
0 0 0 0 0 0 0 0 0 0 0 0 0 0 0 0 0 0 0 0 0 0 0 0 0 0 0 0 0 0 0 0 0 0 0 0 0 0 0 0 0 0 0 0
0 0 0 0 0 0 0 0 0 0 0 0 0 0 0 0 0 0 0 0 0 0 0 0 0 0 0 0 0 0 0 0 0 0 0 0 0 0 0 0 0 0 0 0
0 0 0 0 0 0 0 0 0 0 0 0 0 0 0 0 0 0 0 0 0 0 0 0 0 0 0 0 0 0 0 0 0 0 0 0 0 0 0 0 0 0 0 0
0 0 0 0 0 0 0 0 0 0 0 0 0 0 0 0 0 0 0 0 0 0 0 0 0 0 0 0 0 0 0 0 0 0 0 0 0 0 0 0 0 0 0 0
0 0 0 0 0 0 0 0 0 0 0 0 0 0 0 0 0 0 0 0 0 0 0 0 0 0 0 0 0 0 0 0 0 0 0 0 0 0 0 0 0 0 0 0
0 0 0 0 0 0 0 0 0 0 0 0 0 0 0 0 0 0 0 0 0 0 0 0 0 0 0 0 0 0 0 0 0 0 0 0 0 0 0 0 0 0 0 0
0 0 0 0 0 0 0 0 0 0 0 0 0 0 0 0 0 0 0 0 0 0 0 0 0 0 0 0 0 0 0 0 0 0 0 0 0 0 0 0 0 0 0 0
0 0 0 0 0 0 0 0 0 0 0 0 0 0 0 0 0 0 0 0 0 0 0 0 0 0 0 0 0 0 0 0 0 0 0 0 0 0 0 0 0 0 0 0
0 0 0 0 0 0 0 0 0 0 0 0 0 0 0 0 0 0 0 0 0 0 0 0 0 0 0 0 0 0 0 0 0 0 0 0 0 0 0 0 0 0 0 0
0 0 0 0 0 0 0 0 0 0 0 0 0 0 0 0 0 0 0 0 0 0 0 0 0 0 0 0 0 0 0 0 0 0 0 0 0 0 0 0 0 0 0 0
0 0 0 0 0 0 0 0 0 0 0 0 0 0 0 0 0 0 0 0 0 0 0 0 0 0 0 0 0 0 0 0 0 0 0 0 0 0 0 0 0 0 0 0
0 0 0 0 0 0 0 0 0 0 0 0 0 0 0 0 0 0 0 0 0 0 0 0 0 0 0 0 0 0 0 0 0 0 0 0 0 0 0 0 0 0 0 0
0 0 0 0 0 0 0 0 0 0 0 0 0 0 0 0 0 0 0 0 0 0 0 0 0 0 0 0 0 0 0 0 0 0 0 0 0 0 0 0 0 0 0 0
0 0 0 0 0 0 0 0 0 0 0 0 0 0 0 0 0 0 0 0 0 0 0 0 0 0 0 0 0 0 0 0 0 0 0 0 0 0 0 0 0 0 0 0
0 0 0 0 0 0 0 0 0 0 0 0 0 0 0 0 0 0 0 0 0 0 0 0 0 0 0 0 0 0 0 0 0 0 0 0 0 0 0 0 0 0 0 0
0 0 0 0 0 0 0 0 0 0 0 0 0 0 0 0 0 0 0 0 0 0 0 0 0 0 0 0 0 0 0 0 0 0 0 0 0 0 0 0 0 0 0 0
0 0 0 0 0 0 0 0 0 0 0 0 0 0 0 0 0 0 0 0 0 0 0 0 0 0 0 0 0 0 0 0 0 0 0 0 0 0 0 0 0 0 0 0
0 0 0 0 0 0 0 0 0 0 0 0 0 0 0 0 0 0 0 0 0 0 0 0 0 0 0 0 0 0 0 0 0 0 0 0 0 0 0 0 0 0 0 0
0 0 0 0 0 0 0 0 0 0 0 0 0 0 0 0 0 0 0 0 0 0 0 0 0 0 0 0 0 0 0 0 0 0 0 0 0 0 0 0 0 0 0 0
0 0 0 0 0 0 0 0 0 0 0 0 0 0 0 0 0 0 0 0 0 0 0 0 0 0 0 0 0 0 0 0 0 0 0 0 0 0 0 0 0 0 0 0
0 0 0 0 0 0 0 0 0 0 0 0 0 0 0 0 0 0 0 0 0 0 0 0 0 0 0 0 0 0 0 0 0 0 -0 0 0 0 0 0 0 0 0 0
Wind_Speed
1 0 1 1 1 1 2 3 5 3 3 3 4 6 8 10 11 11 11 10 9 7 5 5 4 3 3 3 3 3 4 5 4 4 4 5 5 5 6 6 6 6 7 7
3 2 3 4 4 2 1 1 1 1 0 1 4 6 7 9 11 11 10 10 9 8 7 5 5 4 3 3 3 3 4 4 3 4 5 5 5 5 6 6 6 7 7 7
1 3 2 3 4 2 1 1 1 2 1 3 5 6 7 9 10 10 10 9 9 8 7 6 4 4 3 3 3 3 3 3 3 4 5 5 5 6 6 5 6 7 7 7
2 3 1 2 1 2 2 3 3 3 3 4 5 4 4 5 8 9 9 9 8 7 6 5 4 4 4 3 3 3 3 3 3 4 4 4 5 5 5 4 5 5 6 6
3 2 1 1 0 0 1 1 2 3 5 5 6 5 4 3 5 7 8 8 7 6 6 6 5 5 4 3 3 3 3 3 3 3 4 4 5 4 3 4 5 4 4 6
3 3 2 3 3 1 2 1 0 3 6 6 4 3 2 4 6 7 8 7 7 7 6 6 5 5 5 4 4 3 2 3 3 3 4 4 3 3 3 3 4 4 6 6
3 1 2 3 4 1 1 3 1 3 5 5 3 3 4 6 7 7 8 8 8 7 6 5 5 5 5 4 3 2 3 4 4 3 3 3 3 3 3 3 4 5 6 5
3 1 3 3 2 2 3 1 2 3 4 5 5 6 7 8 9 9 8 8 7 7 5 4 5 5 5 4 2 3 4 4 4 3 3 3 3 3 3 3 4 4 4 5
4 4 4 2 1 1 2 2 2 3 4 7 7 6 7 7 8 8 8 7 6 7 6 4 4 5 5 3 3 5 5 4 4 4 4 3 3 3 3 3 3 3 3 3
1 1 1 1 1 1 1 2 3 5 6 7 7 8 8 8 7 7 7 6 6 7 6 4 3 4 4 4 4 5 5 4 3 4 4 3 3 2 2 2 2 2 2 2
0 1 1 2 1 1 3 4 6 5 4 7 9 8 8 7 7 7 6 6 6 6 6 5 4 4 4 4 5 5 4 3 3 3 3 3 3 2 1 0 1 1 1 1
4 5 3 3 1 3 4 4 5 6 6 6 7 9 8 7 6 6 7 6 6 6 5 5 4 4 4 4 5 5 4 3 2 2 2 2 2 2 3 1 1 1 3 2
4 2 3 2 2 3 4 4 4 5 7 7 6 7 8 7 6 6 6 7 6 6 6 5 5 4 4 4 5 4 4 3 2 2 2 1 1 1 1 3 3 2 1 1
3 3 3 2 3 3 5 5 5 6 6 6 7 7 7 6 6 7 6 6 6 6 6 5 5 4 4 4 4 4 3 3 2 2 2 1 1 1 1 0 2 2 3 3
1 2 4 4 5 5 5 6 7 6 6 6 6 7 8 8 7 6 6 6 6 6 6 5 5 4 4 5 4 4 3 2 2 2 1 1 1 1 1 1 1 2 2 3
2 4 5 6 6 6 6 6 6 6 6 6 6 7 7 7 6 6 6 7 7 7 6 6 5 4 5 5 4 3 2 3 3 2 1 1 1 1 1 2 2 2 3 3
5 4 4 5 6 6 6 6 7 7 7 7 7 7 7 7 6 5 5 6 6 6 6 6 6 5 5 5 5 3 2 2 2 2 2 2 2 2 2 2 3 3 4 4
6 6 7 8 8 7 7 6 7 7 7 7 8 8 8 8 8 7 6 5 5 4 4 6 5 5 5 5 4 3 3 2 2 2 2 2 2 3 3 3 4 4 4 3
3 4 5 6 7 8 7 7 7 7 7 8 9 8 7 7 7 6 6 6 6 6 6 6 7 6 5 6 5 3 3 3 2 2 2 3 2 2 3 3 4 4 4 4
3 4 5 5 6 6 7 7 7 7 7 8 8 7 6 6 6 6 6 6 6 6 6 6 7 6 6 6 7 4 4 4 3 3 2 2 3 3 3 3 4 4 4 4
4 5 6 6 5 5 6 7 8 8 8 8 9 9 8 7 7 7 6 5 5 5 6 8 6 5 6 6 7 5 5 4 4 4 3 3 3 4 4 4 4 4 5 5
3 4 5 5 5 4 4 5 6 7 8 8 8 8 7 7 7 6 6 6 5 7 6 5 5 7 8 8 5 5 5 5 5 4 4 4 4 4 5 5 5 5 5 5
3 4 4 5 5 4 4 4 6 7 8 8 9 9 8 7 7 6 6 6 5 8 7 6 8 11 11 7 5 6 6 6 6 5 5 5 5 5 5 6 6 6 6 6
3 4 4 4 4 4 4 4 4 5 6 6 7 8 7 6 5 6 5 6 9 10 7 8 12 13 11 6 6 6 6 6 6 6 6 6 6 6 6 6 6 6 6 7
3 3 4 4 4 3 4 3 4 3 4 3 5 6 6 6 6 6 6 7 9 10 7 9 13 13 9 7 7 7 7 7 7 7 7 7 7 7 7 7 7 7 7 7
2 3 3 4 3 3 3 4 3 3 4 4 4 4 5 4 5 4 4 6 8 9 8 6 7 9 8 8 9 9 8 8 8 8 8 8 8 8 8 8 10 8 8 8
2 2 1 1 1 2 3 4 4 4 5 5 5 5 5 5 5 6 6 6 6 7 7 7 7 7 8 9 9 9 9 8 8 8 8 8 8 8 9 10 9 8 8 8
Wind_Direction
131 170 120 92 43 111 145 178 183 217 190 204 183 165 156 150 146 149 153 155 151 148 139 130 122 111 98 81 67 70 68 58 47 42 49 52 48 44 41 41 42 39 41 37
47 43 86 63 23 44 73 95 152 122 191 95 120 119 136 148 153 158 161 159 153 149 146 147 143 132 113 88 71 76 75 63 53 52 54 54 52 51 50 43 37 40 39 38
3 315 57 23 338 2 55 33 145 199 217 114 117 137 154 159 161 162 161 157 156 157 154 151 145 134 121 103 86 84 80 71 64 64 59 53 59 57 50 42 40 41 35 38
88 63 96 254 352 62 85 34 39 79 97 107 116 119 124 143 154 156 154 155 155 150 143 138 130 120 116 109 105 99 90 79 74 75 71 63 61 56 47 43 43 40 35 33
101 103 273 292 316 88 106 32 37 117 118 106 110 88 76 108 138 149 150 148 144 141 137 133 130 127 121 110 106 102 95 88 81 86 83 74 66 56 48 55 51 43 37 36
103 116 211 268 308 317 119 329 245 144 145 141 123 119 183 137 128 124 125 128 129 127 122 128 130 126 121 119 115 113 106 101 92 91 94 89 76 63 51 63 63 58 50 38
105 137 266 293 313 25 133 258 230 159 155 152 151 168 145 127 122 122 120 123 126 127 129 136 134 125 121 121 126 126 111 101 92 88 93 91 76 66 68 70 65 58 55 41
118 123 263 322 37 126 216 236 133 140 143 130 116 114 120 122 125 124 121 122 127 126 125 123 128 127 125 127 126 112 106 99 93 84 81 85 80 69 66 73 70 56 54 42
172 202 245 291 215 254 166 148 141 137 133 129 127 131 128 126 128 128 128 127 127 130 125 119 126 133 133 133 122 113 105 100 94 83 72 72 81 77 64 64 74 61 61 49
93 287 283 304 11 36 95 127 129 131 135 137 135 136 130 130 131 130 126 127 128 130 130 130 131 131 133 130 122 116 110 103 96 89 75 60 59 67 74 67 76 74 70 54
54 271 5 10 61 102 81 93 103 106 116 133 133 134 135 136 139 137 132 130 132 137 139 141 134 129 131 130 123 117 113 107 100 91 86 70 54 44 58 58 209 161 163 156
209 218 184 218 197 133 119 119 126 119 111 119 133 135 133 137 140 137 135 133 134 136 139 140 136 134 135 137 134 127 118 111 113 114 103 94 79 44 37 40 15 175 190 189
197 182 166 166 131 123 128 131 129 127 135 134 132 134 134 135 137 136 138 143 147 147 145 143 141 142 146 143 139 136 134 133 133 134 131 120 108 104 17 1 23 33 358 240
159 122 114 141 147 132 124 120 112 107 117 129 132 130 130 128 134 144 153 155 147 142 143 146 148 157 157 146 141 140 141 148 150 155 158 164 174 179 168 321 332 328 334 308
145 147 152 133 120 117 115 117 116 120 124 125 133 138 142 145 152 157 153 144 138 141 149 152 158 171 166 156 153 155 155 159 156 157 167 186 191 189 204 232 258 288 308 312
104 103 119 130 140 141 137 141 145 153 151 146 148 153 155 154 151 148 149 150 150 162 167 167 176 182 168 162 159 160 170 180 172 173 190 208 211 211 220 236 251 260 267 272
135 147 155 158 164 166 170 169 167 165 161 162 164 156 148 144 145 154 163 167 169 173 173 176 186 182 170 167 166 172 175 184 186 187 212 221 222 230 235 238 247 256 260 252
182 187 183 175 172 173 175 169 167 166 166 168 157 152 155 162 171 178 174 161 156 169 189 190 186 176 175 175 172 173 177 189 201 217 227 226 229 232 235 241 251 260 271 272
177 173 169 168 170 169 171 172 171 169 162 156 158 165 172 175 176 173 163 161 171 193 210 197 184 179 181 187 177 175 183 196 209 225 231 239 239 239 239 246 254 260 266 267
145 148 146 148 153 160 170 170 162 161 163 161 159 162 171 179 175 170 169 184 200 202 192 180 179 185 192 194 186 186 195 204 212 224 229 239 246 251 249 253 259 263 264 262
139 144 146 150 156 162 166 163 163 168 168 166 169 177 183 183 176 171 173 203 223 202 187 183 185 193 196 192 190 194 202 208 214 221 228 237 244 250 254 257 261 262 263 264
139 147 153 152 152 161 167 162 166 170 169 173 179 177 176 180 182 185 198 210 211 190 185 192 198 201 199 193 194 200 207 211 216 221 228 235 241 249 256 258 260 262 262 260
140 144 148 156 164 163 154 163 172 173 177 181 183 184 187 191 186 188 213 219 202 195 193 203 207 205 201 198 203 208 214 216 219 224 230 234 238 243 250 256 258 260 262 262
138 144 145 140 134 136 159 183 179 181 185 188 192 190 184 184 199 212 215 202 198 197 204 210 210 209 202 204 207 213 219 223 226 230 234 236 239 242 246 251 256 258 258 260
136 138 134 137 149 177 189 171 160 172 178 192 201 197 193 192 200 210 204 203 202 201 212 216 213 211 207 210 213 218 222 226 228 229 233 236 240 243 246 248 251 255 258 258
138 154 170 184 184 181 169 164 175 187 185 198 214 208 202 202 206 204 201 206 203 204 211 216 210 207 210 215 219 223 227 230 232 233 236 238 242 244 247 248 251 252 255 256
117 122 127 134 173 175 174 179 189 200 199 201 213 213 205 203 202 206 207 210 209 211 215 217 215 212 213 217 221 224 227 230 232 233 235 237 240 242 245 247 250 251 252 256